Weather Roundup
Issued by NWS Chicago, IL

Home | Current Version | Previous Version | Text Only | Print | Product List | Glossary Off
Versions: 1 2 3 4 5 6 7 8 9 10 11 12 13 14 15 16 17 18 19 20 21 22 23 24 25 26 27 28 29 30 31 32 33 34 35 36 37 38 39 40 41 42 43 44 45 46 47 48 49 50

000
NZUS59 KLOT 050321
HRRLOT

CHICAGO AREA WEATHER ROUNDUP
NATIONAL WEATHER SERVICE CHICAGO/ROMEOVILLE IL
1000 PM CDT TUE AUG 04 2015

NOTE: "FAIR" INDICATES FEW OR NO CLOUDS BELOW 12,000 FEET WITH NO
SIGNIFICANT WEATHER AND/OR OBSTRUCTIONS TO VISIBILITY.

* THESE STATIONS ARE NOT UNDER NWS QUALITY CONTROL. THEY ALSO MAY NOT
  REPORT WEATHER SUCH AS PRECIPITATION OR FOG.

ILZ005-006-012>014-019>023-050400-
NORTHEAST ILLINOIS

CITY           SKY/WX    TMP DP  RH WIND       PRES   REMARKS
OHARE          PTCLDY    72  58  61 VRB6      30.03R
MIDWAY         MOCLDY    74  59  59 E7        30.02R
AURORA         PTCLDY    62  57  83 NW3       30.04R
LANSING*       PTCLDY    66  58  75 CALM      30.03R
JOLIET*        PTCLDY    65  58  79 CALM      30.03R
WAUKEGAN       PTCLDY    62  58  86 CALM      30.02R
DUPAGE AIRPORT PTCLDY    67  56  67 CALM      30.03R
WHEELING       PTCLDY    69  59  70 CALM      30.04R
KANKAKEE*      PTCLDY    67  61  79 W5        30.04R
MORRIS*        PTCLDY    67  60  77 NW3       30.02R
LEWIS AIRPORT* PTCLDY    69  54  58 NW5       30.03R
NORTHERLY IS     N/A     72  58  61 E7          N/A
$$

WIZ051-052-058>065-066-070>072-050400-
SOUTHEAST WISCONSIN

CITY           SKY/WX    TMP DP  RH WIND       PRES   REMARKS
MILWAUKEE      PTCLDY    68  56  65 S5        30.02R
KENOSHA*       PTCLDY    63  56  78 SW3       30.03R
RACINE*        PTCLDY    66  57  72 S5        30.04R
BURLINGTON     PTCLDY    58  55  91 CALM      30.03R
WAUKESHA       CLEAR     61  52  72 CALM      30.03S
WEST BEND      CLEAR     61  55  82 CALM      30.02R
$$

INZ001>003-010>013-019-020-050400-
NORTHWEST INDIANA

CITY           SKY/WX    TMP DP  RH WIND       PRES   REMARKS
GARY*          MOCLDY    72  64  78 NE5       30.03R
MICHIGAN CITY* NOT AVBL
RENSSELAER*    NOT AVBL
VALPARAISO     MOCLDY    64  59  83 CALM      30.04R
$$

LMZ740>746-050400-
SOUTHERN LAKE MICHIGAN

STATION/POSITION TIME  SKY/WX   TEMP WIND        PRES    VSBY
                                AIR  DIR/SP/G
                 (UTC)          (F)  (DEG/KT/KT) (MB)    (MI)
HARRISON CRIB    0300            72  110/  8/  9   N/A
BURNHAM HARBOR   0300            71  100/  4/  7   N/A
CALUMET HARBOR   0200            72   40/  6/  7   N/A
BURNS HARBOR     0200            73   50/ 12/ 13 1016.6R
MICHIGAN CITY    0300            71   80/  6/  7   N/A
$$

ABBREVIATIONS USED IN REMARKS
   TC - TEMPERATURE IN CELSIUS
  WCI - WIND CHILL INDEX
   HX - HEAT INDEX
  VSB - VISIBILITY
$$


USA.gov is the U.S. government's official web portal to all federal, state and local government web resources and services.